Dewpoint
-7 0 2 2 2 3 8 9 10 9 10 15 15 13 14 12 12 12 10 11 11 10 10 10 9 9 9 10 10 11 11 12 13 13 14 14 14 13 14 16 15 15 16 16
-4 -1 -1 -0 0 2 5 8 10 13 13 14 15 14 13 13 11 12 10 10 11 10 10 10 9 9 10 10 11 11 12 12 12 12 13 14 15 15 15 16 16 17 17 16
-3 -3 -3 -1 -1 0 3 8 9 13 12 13 15 15 14 14 13 11 10 11 10 10 10 10 9 8 9 10 11 11 12 12 12 11 14 15 16 16 16 16 16 17 16 17
-5 -6 -6 -5 -4 -3 1 3 8 11 11 12 12 15 14 13 12 12 10 10 10 10 10 9 9 8 9 9 10 11 11 11 13 12 15 15 15 14 15 16 15 16 15 16
-5 -6 -6 -5 -6 -6 -3 6 9 9 12 12 12 14 14 12 13 11 10 9 11 10 10 9 9 8 9 9 9 10 11 11 13 13 13 14 14 14 16 15 14 15 16 14
-8 -10 -8 -8 -9 -10 -8 9 8 11 11 12 12 11 11 12 10 11 10 9 8 9 10 9 9 8 10 9 10 10 11 11 12 13 14 13 14 15 14 14 15 15 14 12
-10 -11 -12 -12 -10 -11 -6 -0 3 5 13 13 13 13 11 9 9 10 10 9 8 9 10 10 9 9 10 10 10 11 11 11 12 13 13 14 16 17 15 15 15 14 14 13
-8 -8 -11 -12 -10 -10 -10 -2 3 6 12 15 12 14 12 9 8 9 9 8 7 9 10 10 10 10 10 10 10 10 11 11 12 13 14 16 17 18 16 15 15 14 13 15
-10 -9 -12 -14 -12 -11 -10 -7 -3 2 11 14 14 12 9 10 8 7 8 7 7 7 8 7 10 11 10 11 10 10 10 11 12 12 15 17 17 17 16 16 13 11 14 15
-11 -11 -14 -14 -12 -13 -11 -9 -4 -0 5 10 13 14 12 10 9 8 9 7 7 8 7 8 9 11 10 10 10 10 11 10 12 14 15 16 17 17 17 15 14 14 15 15
-13 -13 -12 -12 -11 -11 -9 -6 -4 -3 3 9 13 12 9 9 9 8 8 7 6 8 9 9 11 11 10 10 10 10 11 11 12 14 16 16 17 17 16 16 15 16 16 15
-13 -12 -11 -11 -12 -11 -10 -8 -6 -2 -2 6 9 7 6 7 7 8 7 6 6 7 10 11 11 10 10 11 10 11 11 12 13 15 16 17 17 15 14 14 15 16 13 11
-12 -10 -8 -9 -10 -11 -9 -7 -5 -4 -2 4 8 8 6 7 8 7 8 6 6 7 10 9 10 10 11 11 11 11 11 13 14 16 17 16 14 13 14 14 14 13 11 10
-10 -11 -9 -6 -8 -8 -7 -9 -7 -5 -2 -1 5 7 10 9 8 7 5 7 6 6 11 10 10 11 12 12 12 12 14 15 16 17 16 14 12 14 14 15 15 13 12 13
-11 -10 -10 -10 -9 -9 -9 -10 -10 -7 -5 -4 -0 7 10 7 6 4 4 7 9 7 11 11 12 12 13 13 14 14 15 16 16 16 16 13 14 15 16 16 14 13 13 14
2 -4 -6 -6 -8 -8 -8 -8 -9 -9 -7 -5 5 6 7 6 3 3 3 7 12 11 11 12 12 13 13 14 14 15 16 17 17 16 15 14 15 17 17 16 14 14 14 14
4 5 4 3 3 -1 -5 8 4 -0 9 5 6 4 5 7 7 6 5 9 12 11 11 12 12 13 14 15 15 16 16 17 17 17 14 13 17 17 17 15 15 15 14 11
5 6 6 3 1 2 -2 8 10 9 11 11 12 11 4 6 5 4 3 7 11 11 11 12 13 13 14 15 15 16 17 18 18 17 14 15 17 17 16 16 15 13 10 12
6 6 5 3 5 2 10 9 10 12 11 9 10 8 6 4 8 9 5 5 11 9 10 11 12 13 14 15 16 17 18 19 19 17 16 17 17 16 16 14 11 12 12 11
6 5 6 6 6 6 11 8 7 9 12 9 10 10 6 9 11 10 10 9 9 10 11 12 12 13 14 16 17 18 18 18 18 17 17 16 16 15 14 13 13 12 10 1
10 9 11 12 10 9 10 8 8 13 13 10 12 12 9 11 11 11 10 10 11 9 10 12 12 12 15 16 18 17 17 18 17 17 16 16 16 14 13 14 13 11 2 2
11 10 12 12 13 10 8 8 10 9 9 10 10 11 9 6 9 10 10 11 11 11 11 13 13 15 17 17 17 18 18 17 17 17 17 15 15 13 14 14 12 3 0 -0
12 11 11 10 11 9 8 7 7 9 10 9 9 7 8 6 7 9 8 10 12 12 12 14 14 15 17 17 17 16 15 16 16 17 16 15 15 14 14 13 7 -2 3 5
10 9 10 10 7 8 6 7 3 6 8 8 8 7 7 5 3 6 10 10 12 13 16 14 15 16 17 17 16 16 15 15 17 16 15 13 14 13 13 8 -1 4 6 7
9 9 9 9 7 6 7 5 3 6 8 8 6 5 4 8 4 4 9 12 14 15 17 17 16 17 17 16 17 16 14 15 15 9 10 10 10 13 12 8 4 6 5 3
10 9 10 9 6 5 4 5 5 7 6 5 3 2 6 8 7 9 10 12 15 14 14 15 15 15 15 15 16 16 15 16 11 8 10 13 14 13 11 9 6 8 3 1
Wind_Speed
16 1 8 13 8 10 8 2 7 2 12 9 7 13 14 5 5 8 15 31 34 30 28 31 27 26 28 29 30 26 22 19 18 16 15 14 12 10 12 14 16 18 17 19
6 7 13 7 9 12 5 7 4 14 23 9 8 8 11 20 17 16 15 23 36 30 28 33 29 26 30 30 28 26 23 19 19 18 16 14 10 11 13 15 14 15 17 13
7 12 7 7 9 9 5 12 5 20 19 10 12 5 8 14 15 16 13 19 30 34 32 35 33 31 29 31 30 28 25 19 17 18 15 15 13 15 12 13 15 11 16 15
8 15 10 10 8 5 6 10 13 20 6 4 4 5 7 11 8 7 19 17 31 30 34 37 36 33 33 31 30 30 27 21 18 18 19 18 16 11 11 10 7 12 13 12
10 8 10 6 8 3 9 18 9 8 6 5 3 1 3 8 9 9 15 16 26 32 33 40 41 35 37 34 33 32 29 24 20 19 19 18 16 11 12 9 9 10 8 10
9 8 4 8 11 3 3 9 7 5 4 2 4 2 4 4 6 5 15 17 13 9 31 40 43 39 35 39 35 35 33 29 22 20 20 18 17 16 14 9 7 6 6 3
8 9 7 6 6 7 5 6 3 4 5 4 2 4 8 12 8 10 8 12 16 19 18 32 43 44 38 40 40 37 35 32 26 22 22 20 19 16 13 9 6 4 2 2
3 9 5 4 7 7 4 7 6 5 3 2 1 5 6 10 11 6 13 4 4 12 14 33 41 42 44 38 38 36 35 34 30 26 24 22 19 16 14 8 4 5 5 3
6 7 2 5 5 8 10 4 8 6 3 4 4 6 7 9 17 8 5 7 18 22 29 28 40 46 45 39 38 34 36 34 31 29 26 23 19 15 12 9 7 6 6 3
8 5 6 7 2 6 11 5 1 3 2 3 5 6 5 6 13 10 6 16 16 21 38 39 41 45 46 41 38 33 35 32 32 30 27 21 17 13 12 11 6 8 7 6
7 6 19 1 2 5 3 2 3 6 5 5 3 6 8 11 10 14 8 18 14 10 26 35 39 45 47 39 38 35 35 34 33 30 23 19 16 12 13 10 10 10 8 6
11 7 8 11 4 6 6 9 6 5 5 3 4 6 8 9 11 17 24 21 14 12 22 40 44 46 40 41 37 37 38 33 30 25 19 16 14 14 14 14 11 10 9 9
8 1 2 10 8 4 1 4 5 4 4 6 6 6 6 6 3 17 18 25 20 10 14 20 25 32 30 33 35 38 36 31 27 22 18 17 18 18 17 14 11 12 9 9
3 4 7 6 7 3 4 7 4 5 3 4 6 5 3 7 12 13 25 26 32 21 20 21 24 28 30 30 34 35 32 28 24 19 19 20 19 20 16 15 11 11 9 8
4 4 5 7 6 1 2 6 7 3 8 6 7 10 11 16 11 17 25 11 16 22 26 24 25 25 23 24 32 34 31 27 23 20 21 20 21 20 19 16 14 12 11 10
7 3 4 6 7 7 6 8 7 5 5 4 10 7 9 21 25 18 17 16 20 33 28 26 26 25 25 27 33 32 31 28 23 23 22 23 26 25 23 18 15 13 12 10
4 3 4 4 4 5 6 15 11 7 11 6 3 8 12 10 12 20 23 24 36 35 32 32 32 32 31 32 33 34 31 28 25 26 25 28 27 27 21 18 16 14 12 10
2 3 2 3 4 2 3 13 7 5 12 14 11 16 17 24 29 26 26 34 40 38 36 34 34 33 32 32 32 31 29 27 27 27 28 28 29 26 23 19 17 15 10 6
2 4 1 1 2 5 10 12 10 6 6 16 17 22 12 21 8 15 11 32 41 37 37 36 34 35 34 34 32 31 30 30 29 29 30 30 29 25 22 19 15 12 9 7
6 6 4 3 1 3 6 12 25 8 2 15 20 17 22 16 7 5 13 10 14 23 36 38 36 37 37 36 34 31 30 31 32 32 30 28 25 23 20 18 15 11 8 7
5 4 4 2 1 5 3 12 13 7 5 24 21 25 21 5 5 17 15 14 11 4 17 34 41 38 39 37 34 28 26 32 32 30 26 24 22 18 18 17 13 11 9 6
2 1 2 3 3 6 5 4 7 5 16 18 28 25 24 25 22 22 21 24 23 15 12 22 36 36 37 35 29 27 30 30 26 24 24 23 19 17 16 13 11 11 8 9
2 6 5 8 6 9 7 6 4 3 8 14 20 19 21 18 28 25 23 24 22 15 6 24 34 37 35 30 25 22 15 15 18 23 25 21 17 15 13 10 10 10 12 13
3 1 1 2 7 15 21 15 8 8 6 6 8 9 14 15 17 26 21 19 22 16 15 23 31 34 34 28 25 18 24 21 32 34 23 9 15 15 15 13 12 15 12 7
4 7 4 6 10 14 22 23 23 16 11 9 6 9 8 9 19 20 18 16 18 12 9 21 29 33 32 24 29 29 28 31 31 12 21 29 24 24 18 13 12 12 8 5
9 6 5 6 14 9 10 12 14 21 17 10 9 7 12 16 10 5 7 7 8 11 9 13 18 19 17 22 33 30 28 36 23 12 30 31 24 13 15 14 13 12 9 6
Wind_Direction
285 67 245 249 220 247 189 151 187 271 113 57 53 345 310 141 312 272 225 199 202 207 208 195 196 203 200 196 199 201 203 208 208 217 232 238 244 241 247 258 267 275 286 298
352 254 245 240 264 282 173 207 205 77 121 127 6 252 277 283 203 217 221 222 202 202 199 195 196 203 199 201 204 204 213 217 218 224 236 250 262 252 245 262 278 270 283 291
192 252 331 274 270 253 263 205 185 117 125 125 140 268 237 265 260 231 236 226 215 201 203 199 196 204 205 206 208 211 215 222 228 225 231 241 244 251 264 281 286 289 292 293
240 262 248 269 264 178 282 197 121 148 115 177 199 242 219 221 254 247 250 242 220 213 211 206 202 206 209 213 217 218 217 225 230 226 228 240 250 260 268 291 279 271 286 300
247 288 300 289 251 171 237 123 118 158 111 117 252 89 258 170 231 229 221 220 209 216 217 211 210 209 214 216 218 223 222 227 228 228 233 241 249 248 258 273 271 265 290 321
239 269 207 240 279 242 220 91 47 45 87 35 319 37 279 186 228 172 171 178 188 194 225 222 221 212 212 218 221 222 222 226 225 228 231 239 247 243 257 268 269 283 304 334
310 281 277 205 291 321 88 67 347 340 14 233 316 55 252 272 247 228 232 204 216 189 207 219 222 218 211 217 222 223 224 225 224 225 229 234 238 240 251 260 255 260 251 123
171 319 208 267 192 211 242 140 152 228 187 265 52 238 252 267 274 194 187 205 195 200 219 216 222 226 214 214 218 221 224 224 224 224 225 228 236 240 252 259 212 214 180 161
167 263 257 283 270 153 261 232 186 120 86 98 223 274 296 278 290 307 165 265 269 257 249 227 223 226 220 212 219 225 223 220 223 223 221 223 233 241 231 203 209 202 176 183
222 283 240 275 271 327 169 178 33 7 148 236 322 301 241 244 243 270 306 295 264 252 235 235 227 222 217 212 218 226 224 220 222 217 218 227 235 220 204 198 196 190 183 217
170 146 268 10 185 237 4 278 77 125 143 156 156 257 203 218 220 239 258 267 258 328 235 221 219 223 213 212 212 223 219 218 215 213 215 224 219 205 193 194 197 190 201 229
196 165 236 236 244 206 175 214 161 127 259 213 161 254 328 190 212 213 248 268 279 299 214 214 212 214 214 212 213 220 218 212 207 203 209 204 200 186 187 182 185 188 186 179
161 179 50 337 350 10 165 268 165 120 92 194 146 258 314 101 171 248 277 275 272 266 195 171 185 199 200 203 208 205 203 199 194 196 193 185 180 177 172 169 164 171 176 182
97 126 144 184 223 155 333 312 292 131 118 198 205 167 212 167 189 211 249 268 258 249 182 169 168 182 187 193 197 197 191 190 191 190 187 183 178 171 170 169 178 182 181 183
49 174 160 207 244 330 264 286 307 201 234 184 211 173 200 191 192 195 216 241 253 217 188 179 176 181 185 187 188 189 189 189 190 190 186 182 175 173 174 184 197 194 191 196
355 332 47 332 344 355 311 300 311 270 280 240 173 208 209 205 197 221 224 241 206 193 189 190 196 199 199 198 192 189 189 189 189 188 183 182 181 181 186 196 191 192 198 213
37 54 37 298 324 0 342 4 5 329 34 340 168 236 180 216 223 215 219 209 200 191 192 196 202 203 199 195 193 190 192 190 190 189 188 184 183 184 194 197 199 204 217 214
108 97 94 259 8 308 167 24 51 353 56 17 335 315 207 202 217 233 216 210 202 197 199 203 203 203 201 199 195 194 195 194 194 195 189 185 187 192 195 199 206 212 198 202
148 122 71 171 233 287 11 354 339 34 314 7 355 348 48 150 166 51 200 213 207 208 210 211 215 211 208 206 202 196 195 196 199 198 190 189 192 195 197 199 207 189 195 207
48 78 122 61 125 288 204 316 330 148 6 342 351 337 1 19 53 311 53 124 181 224 225 215 213 213 210 209 204 199 201 199 195 194 192 194 197 199 199 193 193 189 194 200
343 0 90 45 202 287 242 322 58 55 266 313 330 323 331 356 327 21 21 25 12 238 221 223 214 215 210 209 202 208 219 205 195 191 190 192 195 198 200 193 185 187 186 180
195 127 66 70 334 299 294 358 90 225 296 313 320 316 333 343 19 23 17 9 2 353 210 217 211 209 205 208 208 211 193 188 180 183 189 188 192 195 196 193 191 179 170 156
237 182 180 177 211 202 219 210 157 318 299 316 313 324 321 358 2 8 7 358 359 341 243 210 202 202 201 204 213 214 178 166 207 193 188 180 195 192 197 213 188 168 156 164
252 161 237 24 272 261 260 244 279 234 272 67 310 336 330 306 324 342 353 346 345 340 197 200 200 195 189 200 206 180 173 182 179 176 161 153 218 200 190 183 180 170 172 185
211 141 198 264 284 289 265 259 267 221 196 143 229 292 337 344 265 277 341 359 346 354 216 205 196 194 193 195 185 182 187 183 173 145 225 184 189 203 185 176 174 175 168 123
190 187 169 224 232 214 253 258 220 239 215 196 216 248 272 287 269 275 319 325 312 335 345 245 231 216 234 200 196 193 191 181 184 252 187 194 195 194 187 183 185 171 154 128
Height
1486 1496 1504 1491 1490 1488 1493 1496 1497 1491 1495 1517 1513 1508 1512 1492 1495 1501 1505 1502 1504 1505 1508 1511 1515 1517 1520 1522 1525 1527 1530 1532 1534 1536 1537 1538 1538 1539 1540 1540 1539 1539 1539 1537
1493 1500 1481 1482 1482 1482 1487 1493 1497 1496 1491 1512 1518 1512 1505 1498 1477 1492 1499 1502 1499 1503 1505 1508 1512 1515 1517 1520 1523 1525 1527 1529 1530 1532 1534 1536 1538 1537 1538 1539 1537 1536 1536 1536
1498 1482 1478 1480 1481 1485 1484 1488 1495 1506 1502 1501 1505 1515 1506 1495 1498 1493 1494 1496 1498 1498 1503 1504 1507 1510 1514 1517 1519 1521 1524 1525 1527 1529 1532 1534 1535 1535 1536 1536 1534 1535 1534 1533
1489 1474 1478 1479 1481 1479 1490 1468 1476 1488 1499 1521 1501 1528 1502 1495 1496 1492 1491 1492 1497 1498 1501 1502 1504 1507 1509 1511 1515 1518 1520 1522 1524 1526 1528 1530 1531 1532 1534 1535 1533 1534 1533 1532
1486 1477 1479 1482 1476 1471 1478 1465 1473 1484 1499 1511 1510 1517 1500 1497 1499 1491 1485 1486 1490 1493 1497 1497 1498 1501 1504 1508 1510 1513 1517 1519 1521 1523 1525 1527 1529 1531 1533 1533 1533 1532 1532 1531
1477 1469 1472 1470 1463 1463 1461 1477 1486 1495 1508 1528 1511 1510 1505 1491 1481 1480 1478 1482 1483 1486 1489 1493 1497 1497 1500 1504 1507 1510 1513 1515 1518 1520 1522 1524 1526 1528 1530 1531 1530 1530 1531 1530
1480 1473 1465 1464 1468 1459 1465 1486 1519 1520 1535 1536 1517 1518 1498 1472 1464 1467 1467 1469 1471 1474 1479 1486 1490 1495 1494 1498 1501 1505 1509 1511 1514 1517 1519 1522 1524 1525 1526 1528 1528 1529 1530 1530
1499 1502 1465 1456 1463 1471 1469 1482 1517 1527 1539 1533 1516 1520 1490 1462 1453 1461 1462 1464 1467 1468 1471 1477 1482 1487 1489 1492 1496 1500 1503 1507 1510 1513 1517 1521 1521 1523 1525 1525 1527 1527 1528 1529
1501 1492 1457 1455 1454 1460 1467 1482 1471 1501 1511 1529 1518 1496 1476 1468 1455 1451 1460 1463 1464 1465 1466 1471 1476 1481 1487 1488 1491 1493 1496 1502 1506 1510 1515 1518 1519 1521 1523 1524 1524 1526 1526 1527
1469 1491 1458 1452 1450 1446 1451 1453 1484 1500 1513 1521 1522 1511 1500 1477 1466 1458 1460 1462 1461 1459 1461 1465 1471 1477 1481 1483 1487 1491 1494 1498 1503 1508 1513 1516 1517 1519 1521 1521 1522 1524 1525 1527
1460 1474 1458 1452 1459 1461 1463 1468 1471 1482 1497 1522 1531 1512 1467 1464 1460 1457 1459 1462 1466 1461 1455 1458 1465 1470 1476 1480 1484 1487 1491 1495 1501 1506 1510 1512 1514 1517 1518 1519 1521 1523 1524 1525
1448 1468 1481 1469 1446 1445 1448 1459 1468 1496 1495 1497 1499 1493 1453 1448 1449 1453 1452 1450 1453 1456 1457 1457 1460 1466 1472 1477 1481 1484 1488 1493 1498 1504 1507 1509 1512 1514 1516 1518 1520 1522 1524 1525
1442 1469 1489 1475 1458 1449 1450 1451 1454 1466 1479 1494 1504 1493 1454 1449 1452 1450 1450 1448 1450 1455 1458 1458 1460 1464 1468 1472 1477 1480 1485 1491 1496 1501 1503 1506 1509 1512 1515 1517 1519 1522 1523 1525
1433 1461 1474 1492 1473 1461 1464 1458 1449 1465 1486 1480 1481 1472 1461 1454 1449 1445 1445 1443 1445 1451 1457 1458 1460 1463 1466 1471 1475 1479 1484 1490 1494 1497 1499 1503 1507 1509 1513 1516 1519 1520 1522 1524
1444 1455 1455 1460 1458 1454 1454 1456 1453 1457 1459 1465 1458 1461 1455 1444 1441 1434 1433 1437 1441 1447 1455 1455 1458 1462 1466 1469 1473 1478 1483 1486 1490 1493 1497 1501 1505 1508 1511 1514 1516 1517 1519 1520
1446 1458 1450 1458 1453 1456 1456 1451 1449 1447 1441 1444 1447 1451 1434 1431 1431 1432 1433 1438 1442 1447 1450 1453 1456 1459 1463 1465 1469 1474 1478 1482 1487 1491 1495 1498 1502 1505 1508 1512 1514 1516 1518 1519
1457 1464 1473 1477 1464 1454 1469 1475 1459 1453 1460 1455 1456 1439 1431 1435 1432 1427 1430 1434 1440 1442 1445 1448 1450 1453 1457 1461 1466 1471 1476 1480 1484 1487 1490 1495 1500 1504 1509 1511 1513 1515 1516 1518
1459 1469 1477 1481 1467 1486 1467 1460 1460 1459 1457 1460 1456 1440 1430 1423 1422 1426 1428 1430 1434 1438 1442 1446 1450 1454 1457 1461 1466 1469 1473 1477 1481 1483 1487 1492 1497 1502 1505 1509 1512 1514 1515 1516
1454 1468 1477 1483 1489 1469 1464 1461 1465 1470 1466 1456 1452 1440 1422 1427 1432 1423 1420 1424 1429 1433 1437 1440 1444 1450 1455 1459 1461 1465 1469 1472 1476 1481 1485 1491 1497 1501 1504 1507 1509 1510 1513 1516
1459 1461 1470 1484 1485 1483 1479 1462 1450 1451 1474 1454 1453 1451 1442 1433 1444 1438 1434 1432 1431 1433 1434 1436 1440 1444 1449 1454 1459 1464 1467 1471 1473 1478 1485 1491 1496 1500 1503 1504 1506 1509 1511 1513
1478 1477 1486 1493 1491 1480 1467 1457 1449 1479 1484 1461 1458 1459 1454 1451 1448 1443 1440 1440 1438 1434 1431 1432 1436 1438 1444 1452 1459 1465 1466 1466 1473 1482 1487 1493 1497 1500 1502 1504 1505 1507 1509 1512
1486 1487 1490 1493 1495 1490 1462 1456 1467 1471 1463 1463 1461 1457 1452 1453 1445 1443 1441 1436 1431 1430 1431 1431 1435 1440 1444 1448 1457 1461 1465 1470 1477 1482 1487 1490 1497 1498 1500 1502 1503 1504 1508 1507
1486 1477 1480 1477 1476 1458 1461 1461 1455 1458 1459 1459 1455 1449 1451 1447 1447 1444 1442 1441 1438 1435 1431 1433 1434 1436 1442 1448 1452 1456 1462 1468 1479 1482 1486 1489 1493 1497 1500 1503 1502 1505 1505 1508
1472 1470 1475 1472 1454 1449 1445 1450 1446 1452 1455 1448 1456 1448 1444 1442 1446 1446 1445 1443 1442 1440 1433 1431 1433 1436 1440 1445 1449 1459 1462 1465 1473 1478 1479 1479 1494 1493 1494 1497 1499 1502 1504 1505
1470 1470 1470 1468 1454 1449 1445 1445 1447 1448 1448 1442 1450 1446 1445 1445 1444 1442 1441 1439 1446 1446 1438 1438 1436 1436 1439 1443 1448 1452 1456 1460 1468 1473 1472 1481 1479 1486 1490 1494 1499 1501 1503 1502
1460 1460 1466 1463 1445 1445 1442 1442 1441 1446 1442 1440 1443 1442 1442 1443 1444 1440 1442 1441 1448 1445 1441 1442 1442 1441 1440 1437 1444 1447 1452 1456 1464 1464 1468 1476 1482 1489 1491 1492 1498 1500 1501 1502